Location: McCall
(45.0000°N, 116.0000°W)
Time: 22:38:49
(UTC-06:00)

Amateur Radio Satellites - All Passes

Search period start: 06 July 2015 22:08
Search period end: 07 July 2015 22:08
Location: McCall, 45.0000°N, 116.0000°W

Satellite Date Start Highest point End Downlink Frequencies (MHz)
Time Altitude Azimuth
FUNcube-1 06 Jul 22:14:31 22:18:20 36° 71° (ENE) 22:22:11 145.935
AISAT 06 Jul 22:15:23 22:15:52 10° 59° (ENE) 22:16:37 437.250
Cosmos 2499 06 Jul 22:24:09 22:31:55 60° 76° (ENE) 22:40:17 435.465 / 435.565
DOVE 4 06 Jul 22:28:57 22:32:51 24° 267° (W) 22:36:30 437.250
50 SAT 06 Jul 22:29:21 22:30:47 12° 63° (ENE) 22:32:23 437.505
M-CUBED/EXP-1 PRIME 06 Jul 22:32:50 22:37:04 56° 106° (ESE) 22:41:34 437.505
UWE-3 06 Jul 22:33:50 22:38:03 79° 76° (ENE) 22:42:13 435.000/436.395/437.385
SEEDS 06 Jul 22:36:43 22:40:09 24° 267° (W) 22:43:33 437.485
DELFI C3 06 Jul 22:37:26 22:41:26 81° 77° (ENE) 22:45:30 145.870
AAUSAT CUBESAT 2 06 Jul 22:40:45 22:44:26 30° 265° (W) 22:48:07 437.432
STRAND 1 06 Jul 22:52:12 22:54:13 12° 304° (WNW) 22:56:00 437.568
ESTCUBE 1 06 Jul 22:54:32 22:57:20 17° 63° (ENE) 23:00:17 437.505/2401.250
CINEMA 3 06 Jul 22:55:17 22:59:00 25° 266° (W) 23:02:31 145.822/145.860
DX 1 06 Jul 22:58:53 23:03:02 44° 71° (ENE) 23:07:14 434.975-435.025
VELOX 1 06 Jul 23:00:11 23:03:54 27° 67° (ENE) 23:07:39 145.980
UNISAT 6 06 Jul 23:07:36 23:09:20 12° 88° (E) 23:11:19 437.425
COMPASS 1 06 Jul 23:11:11 23:13:19 13° 272° (W) 23:15:17 437.405
HUMSAT D 06 Jul 23:12:11 23:16:15 70° 75° (ENE) 23:20:20 437.325/437.525
UKube-1 06 Jul 23:15:32 23:19:49 61° 73° (ENE) 23:24:08 .
ZACube-1 06 Jul 23:15:34 23:19:37 46° 261° (W) 23:23:38 437.345
Oscar 11 06 Jul 23:18:51 23:22:32 27° 266° (W) 23:26:11 145.826/435.025
CUBEBUG 2 06 Jul 23:25:55 23:29:23 23° 267° (W) 23:32:43 437.445
AUBIESAT-1 06 Jul 23:30:46 23:34:49 43° 294° (WNW) 23:39:07 437.475
DUCHIFAT 1 06 Jul 23:42:10 23:42:24 10° 86° (E) 23:42:55 145.980
PCSat 06 Jul 23:45:45 23:49:53 22° 39° (NE) 23:54:07 145.827
AISAT 06 Jul 23:47:18 23:51:46 81° 77° (ENE) 23:56:16 437.250
HO-68 06 Jul 23:47:50 23:48:53 10° 279° (W) 23:49:18 435.675
POLYITAN 1 06 Jul 23:49:09 23:51:11 13° 89° (E) 23:53:24 437.675
ANTELSAT 06 Jul 23:50:26 23:54:27 34° 96° (E) 23:58:33 437.575/2403.000
FUNcube-1 06 Jul 23:51:38 23:54:49 20° 268° (W) 23:57:54 145.935
CUBEBUG 1 06 Jul 23:56:40 00:01:00 54° 73° (ENE) 00:05:21 437.445
50 SAT 07 Jul 00:01:09 00:04:57 62° 259° (W) 00:08:46 437.505
TIGRISAT 07 Jul 00:01:26 00:05:37 42° 98° (E) 00:09:53 435.000
M-CUBED/EXP-1 PRIME 07 Jul 00:08:37 00:11:34 18° 300° (WNW) 00:14:33 437.505
QB50P2 07 Jul 00:17:14 00:20:50 27° 95° (E) 00:24:27 145.880/145.840
POPSAT HIP 1 07 Jul 00:17:16 00:20:48 26° 94° (E) 00:24:23 437.405
Cosmos 2499 07 Jul 00:17:57 00:24:44 31° 274° (W) 00:31:43 435.465 / 435.565
SO-50 07 Jul 00:20:13 00:23:57 21° 35° (NE) 00:27:45 436.795
ESTCUBE 1 07 Jul 00:29:17 00:33:47 60° 260° (W) 00:38:19 437.505/2401.250
VELOX 1 07 Jul 00:36:16 00:40:20 33° 264° (W) 00:44:23 145.980
DX 1 07 Jul 00:36:20 00:39:33 19° 268° (W) 00:42:37 434.975-435.025
UNISAT 6 07 Jul 00:42:16 00:46:39 70° 286° (WNW) 00:51:07 437.425
SPROUT 07 Jul 00:48:13 00:52:26 56° 73° (ENE) 00:56:39 437.525
HUMSAT D 07 Jul 00:51:33 00:52:33 11° 273° (W) 00:53:19 437.325/437.525
UKube-1 07 Jul 00:54:04 00:56:25 14° 271° (W) 00:58:34 .
QB50P1 07 Jul 00:55:33 00:59:46 69° 102° (ESE) 01:03:57 145.935-145.965
NANOSAT C BR1 07 Jul 01:08:39 01:12:53 86° 284° (WNW) 01:17:05 145.865
DUCHIFAT 1 07 Jul 01:14:38 01:18:50 76° 285° (WNW) 01:23:01 145.980
TISAT 1 07 Jul 01:18:49 01:23:03 81° 76° (ENE) 01:27:18 437.305
BUGSAT 1 07 Jul 01:19:19 01:23:23 80° 102° (ESE) 01:27:25 437.445
POLYITAN 1 07 Jul 01:23:22 01:27:32 58° 287° (WNW) 01:31:40 437.675
BEESAT 07 Jul 01:26:03 01:29:27 20° 63° (ENE) 01:32:59 436.000
ANTELSAT 07 Jul 01:27:27 01:31:07 26° 293° (WNW) 01:34:47 437.575/2403.000
AISAT 07 Jul 01:27:50 01:29:01 11° 274° (W) 01:29:56 437.250
PCSat 07 Jul 01:28:31 01:33:58 78° 241° (WSW) 01:39:23 145.827
CUBEBUG 1 07 Jul 01:34:55 01:37:44 16° 271° (W) 01:40:24 437.445
TIGRISAT 07 Jul 01:38:49 01:42:09 21° 294° (WNW) 01:45:26 435.000
SWISSCUBE 07 Jul 01:41:16 01:45:22 29° 66° (ENE) 01:49:32 437.505
RS-15 07 Jul 01:44:20 01:52:53 29° 105° (ESE) 02:02:00 29.354- 29.394
ITUPSAT 1 07 Jul 01:47:54 01:52:02 31° 67° (ENE) 01:56:17 437.325
POPSAT HIP 1 07 Jul 01:53:00 01:56:41 30° 292° (WNW) 02:00:19 437.405
QB50P2 07 Jul 01:53:02 01:56:42 29° 292° (WNW) 02:00:19 145.880/145.840
SO-50 07 Jul 02:00:10 02:05:09 83° 236° (SW) 02:10:02 436.795
Cosmos 2491 07 Jul 02:05:24 02:13:06 34° 66° (ENE) 02:20:53 435.465 / 435.565
Oscar 19 07 Jul 02:10:09 02:13:33 18° 89° (E) 02:17:08 437.125/150
SPROUT 07 Jul 02:26:25 02:28:55 15° 271° (W) 02:31:16 437.525
QB50P1 07 Jul 02:33:06 02:35:08 13° 298° (WNW) 02:37:00 145.935-145.965
STARS 07 Jul 02:41:55 02:43:34 12° 60° (ENE) 02:45:26 437.465
YUBILEINY 07 Jul 02:43:16 02:49:04 21° 79° (E) 02:55:14 435.215
BUGSAT 1 07 Jul 02:57:18 02:58:17 11° 299° (WNW) 02:59:05 437.445
BEESAT 07 Jul 03:02:16 03:06:57 53° 260° (W) 03:11:39 436.000
PCSat 07 Jul 03:14:52 03:16:37 11° 257° (WSW) 03:18:01 145.827
AIST 1 07 Jul 03:16:18 03:20:38 57° 79° (E) 03:24:53
SWISSCUBE 07 Jul 03:18:46 03:23:08 34° 264° (W) 03:27:31 437.505
ITUPSAT 1 07 Jul 03:25:33 03:29:54 33° 264° (W) 03:34:13 437.325
KKS-1 07 Jul 03:30:17 03:34:38 56° 72° (ENE) 03:39:01 437.445
SO-50 07 Jul 03:43:13 03:45:00 12° 252° (WSW) 03:46:29 436.795
Oscar 19 07 Jul 03:48:20 03:53:24 61° 288° (WNW) 03:58:27 437.125/150
RS-15 07 Jul 03:53:12 04:04:10 82° 307° (NW) 04:15:34 29.354- 29.394
Cosmos 2491 07 Jul 04:01:59 04:10:32 59° 268° (W) 04:18:59 435.465 / 435.565
ITAMSAT 1 07 Jul 04:06:08 04:11:18 58° 100° (E) 04:16:26 435.822/435.867
MOZHAYETS 4 07 Jul 04:09:58 04:12:55 18° 63° (ENE) 04:16:02
JAS-2 07 Jul 04:10:03 04:15:38 27° 92° (E) 04:21:50 435.910
STARS 07 Jul 04:15:03 04:19:27 81° 257° (WSW) 04:23:52 437.465
Gurwin Techsat 1B 07 Jul 04:16:48 04:22:10 77° 103° (ESE) 04:27:29 435.225
HORYU 2 07 Jul 04:23:01 04:24:39 12° 87° (E) 04:26:30 437.375
YUBILEINY 07 Jul 04:36:10 04:44:53 86° 280° (W) 04:53:40 435.215
AO-7 07 Jul 04:36:17 04:42:39 25° 90° (E) 04:49:18 29.400- 29.500
AIST 1 07 Jul 04:55:35 04:57:48 13° 275° (W) 04:59:50
KKS-1 07 Jul 05:08:56 05:11:41 16° 270° (W) 05:14:17 437.445
MOZHAYETS 4 07 Jul 05:45:14 05:49:45 57° 260° (W) 05:54:19
ITAMSAT 1 07 Jul 05:46:30 05:50:26 21° 298° (WNW) 05:54:13 435.822/435.867
JAS-2 07 Jul 05:54:30 06:01:04 64° 288° (WNW) 06:08:24 435.910
HORYU 2 07 Jul 05:57:24 06:01:52 73° 287° (WNW) 06:06:20 437.375
Gurwin Techsat 1B 07 Jul 05:58:08 06:01:35 17° 300° (WNW) 06:04:51 435.225
Cosmos 2504 07 Jul 05:58:20 06:04:29 37° 88° (E) 06:10:47 435.465 / 435.565
Cosmos 2491 07 Jul 06:03:28 06:05:40 11° 288° (WNW) 06:07:10 435.465 / 435.565
RS-15 07 Jul 06:08:40 06:18:35 35° 337° (NNW) 06:28:46 29.354- 29.394
CUBESAT XI-V 07 Jul 06:20:33 06:24:42 32° 68° (ENE) 06:28:54 437.345
AO-7 07 Jul 06:28:01 06:36:26 79° 291° (WNW) 06:44:45 29.400- 29.500
BEESAT 3 07 Jul 06:34:33 06:36:12 12° 110° (ESE) 06:38:02 437.485
YUBILEINY 07 Jul 06:37:02 06:43:18 20° 303° (WNW) 06:49:15 435.215
STRAND 1 07 Jul 06:50:28 06:54:39 27° 64° (ENE) 06:58:58 437.568
BEESAT 2 07 Jul 06:50:28 06:52:41 15° 111° (ESE) 06:55:05 435.950
PRISM 07 Jul 06:53:16 06:56:24 21° 65° (ENE) 06:59:38 437.425
CUTE-I 07 Jul 07:04:07 07:07:57 20° 90° (E) 07:11:55 437.470
CUSAT 1 07 Jul 07:19:18 07:21:52 14° 92° (E) 07:24:26 437.405
Cubesat XI-IV 07 Jul 07:38:29 07:43:31 40° 97° (E) 07:48:34 437.490
O/OREOS (USA 219) 07 Jul 07:40:21 07:44:29 40° 107° (ESE) 07:48:42 437.305
JAS-2 07 Jul 07:41:58 07:45:15 14° 305° (NW) 07:48:19 435.910
Cosmos 2504 07 Jul 07:50:10 07:56:38 41° 288° (WNW) 08:03:09 435.465 / 435.565
ISS 07 Jul 07:51:19 07:54:01 25° 139° (SE) 07:56:46 145.825
CUBESAT XI-V 07 Jul 07:57:57 08:02:08 30° 266° (W) 08:06:17 437.345
VERMONT LUNAR 07 Jul 08:00:20 08:02:51 23° 164° (SSE) 08:05:24 437.305
BEESAT 3 07 Jul 08:09:34 08:13:39 72° 306° (NW) 08:17:46 437.485
AO-7 07 Jul 08:22:07 08:28:06 22° 312° (NW) 08:33:48 29.400- 29.500
RS-15 07 Jul 08:25:51 08:35:19 29° 10° (N) 08:45:14 29.354- 29.394
BEESAT 2 07 Jul 08:26:14 08:30:19 63° 307° (NW) 08:34:26 435.950
AIST 2 07 Jul 08:27:33 08:31:27 37° 118° (ESE) 08:35:25 435.215
PRISM 07 Jul 08:27:42 08:31:37 38° 262° (W) 08:35:34 437.425
STRAND 1 07 Jul 08:28:46 08:33:40 44° 262° (W) 08:38:36 437.568
DANDE 07 Jul 08:40:56 08:47:35 58° 98° (E) 08:52:37 436.750
CUTE-I 07 Jul 08:43:11 08:48:29 58° 289° (WNW) 08:53:43 437.470
AUBIESAT-1 07 Jul 08:46:43 08:49:41 29° 63° (ENE) 08:52:50 437.475
CUSAT 1 07 Jul 08:58:23 09:04:24 75° 282° (WNW) 09:08:52 437.405
BRITE-PL 07 Jul 08:59:22 09:02:54 25° 93° (E) 09:06:23 437.365/2234.400
PHONESAT 2.4 07 Jul 09:02:50 09:05:17 19° 158° (SSE) 09:07:47 2401.200-2431.200
GONETS M04 07 Jul 09:13:32 09:21:33 43° 88° (E) 09:29:40
HO-68 07 Jul 09:18:35 09:24:01 24° 90° (E) 09:29:40 435.675
Cubesat XI-IV 07 Jul 09:18:50 09:23:31 30° 295° (WNW) 09:28:06 437.490
O/OREOS (USA 219) 07 Jul 09:20:25 09:24:06 24° 307° (NW) 09:27:44 437.305
M-CUBED/EXP-1 PRIME 07 Jul 09:23:41 09:27:01 80° 252° (WSW) 09:30:33 437.505
ISS 07 Jul 09:27:04 09:30:15 53° 336° (NNW) 09:33:27 145.825
CUTE 1.7 + AOD 2 07 Jul 09:35:27 09:38:41 21° 92° (E) 09:42:01 437.475
VERMONT LUNAR 07 Jul 09:36:28 09:39:22 35° 180° (S) 09:42:16 437.305
CANX-2 07 Jul 09:39:06 09:42:39 25° 93° (E) 09:46:16 2200.000
BEESAT 3 07 Jul 09:50:17 09:52:22 13° 328° (NNW) 09:54:22 437.485
GOMX 1 07 Jul 09:56:17 10:00:26 62° 100° (E) 10:04:34 467.674
AIST 2 07 Jul 10:06:19 10:10:06 29° 316° (NW) 10:13:51 435.215
BEESAT 2 07 Jul 10:07:26 10:09:15 12° 329° (NNW) 10:10:58 435.950
UNISAT 6 07 Jul 10:08:52 10:11:07 15° 62° (ENE) 10:13:31 437.425
SEEDS 07 Jul 10:18:00 10:22:09 48° 99° (E) 10:26:17 437.485
AAUSAT CUBESAT 2 07 Jul 10:21:11 10:25:03 35° 96° (E) 10:28:57 437.432
AUBIESAT-1 07 Jul 10:22:09 10:24:35 18° 263° (W) 10:27:01 437.475
UWE-3 07 Jul 10:23:02 10:25:03 13° 89° (E) 10:27:17 435.000/436.395/437.385
DOVE 4 07 Jul 10:24:49 10:28:59 78° 102° (ESE) 10:33:10 437.250
DANDE 07 Jul 10:25:57 10:30:51 22° 290° (WNW) 10:34:45 436.750
NANOSAT C BR1 07 Jul 10:31:16 10:31:45 10° 60° (ENE) 10:32:27 145.865
DUCHIFAT 1 07 Jul 10:36:13 10:37:30 11° 61° (ENE) 10:38:59 145.980
BRITE-PL 07 Jul 10:37:46 10:41:30 29° 292° (WNW) 10:45:05 437.365/2234.400
PHONESAT 2.4 07 Jul 10:39:38 10:42:49 36° 174° (S) 10:46:02 2401.200-2431.200
RS-15 07 Jul 10:39:46 10:51:04 55° 42° (NE) 11:02:54 29.354- 29.394
POLYITAN 1 07 Jul 10:44:25 10:46:41 15° 63° (ENE) 10:49:07 437.675
CINEMA 3 07 Jul 10:46:53 10:51:02 61° 101° (E) 10:55:16 145.822/145.860
COMPASS 1 07 Jul 10:49:54 10:54:09 86° 103° (ESE) 10:58:24 437.405
ANTELSAT 07 Jul 10:51:31 10:55:26 37° 70° (ENE) 10:59:24 437.575/2403.000
ZACube-1 07 Jul 11:02:04 11:05:40 27° 94° (E) 11:09:23 437.345
TIGRISAT 07 Jul 11:02:14 11:06:18 46° 72° (ENE) 11:10:24 435.000
Oscar 11 07 Jul 11:03:21 11:07:34 46° 98° (E) 11:11:46 145.826/435.025
Cosmos 2499 07 Jul 11:04:10 11:10:37 42° 89° (E) 11:17:19 435.465 / 435.565
ISS 07 Jul 11:04:21 11:07:07 25° 356° (N) 11:09:52 145.825
HO-68 07 Jul 11:05:20 11:12:29 72° 290° (WNW) 11:19:35 435.675
GONETS M04 07 Jul 11:10:02 11:18:25 46° 289° (WNW) 11:26:44
CUTE 1.7 + AOD 2 07 Jul 11:10:46 11:14:46 38° 289° (WNW) 11:18:44 437.475
POPSAT HIP 1 07 Jul 11:12:01 11:15:31 26° 68° (ENE) 11:19:07 437.405
QB50P2 07 Jul 11:12:06 11:15:39 27° 68° (ENE) 11:19:17 145.880/145.840
VERMONT LUNAR 07 Jul 11:13:18 11:15:52 23° 196° (SSW) 11:18:25 437.305
CUBEBUG 2 07 Jul 11:13:35 11:17:46 57° 100° (E) 11:22:02 437.445
CANX-2 07 Jul 11:14:46 11:18:37 32° 290° (WNW) 11:22:25 2200.000
GOMX 1 07 Jul 11:36:02 11:38:09 13° 298° (WNW) 11:40:06 467.674
50 SAT 07 Jul 11:36:19 11:38:04 13° 89° (E) 11:40:01 437.505
FUNcube-1 07 Jul 11:36:21 11:40:33 61° 100° (E) 11:44:50 145.935
AISAT 07 Jul 11:37:46 11:39:47 13° 88° (E) 11:42:00 437.250
UNISAT 6 07 Jul 11:43:14 11:47:28 61° 259° (W) 11:51:42 437.425
DELFI C3 07 Jul 11:49:25 11:53:31 78° 285° (WNW) 11:57:35 145.870
QB50P1 07 Jul 11:49:53 11:54:05 66° 74° (ENE) 11:58:17 145.935-145.965
SEEDS 07 Jul 11:54:40 11:57:37 18° 295° (WNW) 12:00:27 437.485
AAUSAT CUBESAT 2 07 Jul 11:57:08 12:00:29 23° 293° (WNW) 12:03:46 437.432
UWE-3 07 Jul 11:57:50 12:02:01 60° 286° (WNW) 12:06:16 435.000/436.395/437.385
NANOSAT C BR1 07 Jul 12:02:44 12:06:59 89° 50° (NE) 12:11:13 145.865
DOVE 4 07 Jul 12:05:01 12:06:14 11° 299° (WNW) 12:07:15 437.250
DUCHIFAT 1 07 Jul 12:08:31 12:12:45 81° 257° (WSW) 12:16:59 145.980
BUGSAT 1 07 Jul 12:10:47 12:14:59 72° 75° (ENE) 12:19:10 437.445
PHONESAT 2.4 07 Jul 12:17:22 12:20:29 32° 191° (S) 12:23:37 2401.200-2431.200
POLYITAN 1 07 Jul 12:17:58 12:22:10 60° 259° (W) 12:26:21 437.675
ESTCUBE 1 07 Jul 12:20:28 12:24:10 25° 93° (E) 12:27:55 437.505/2401.250
DX 1 07 Jul 12:21:07 12:25:27 63° 101° (E) 12:29:45 434.975-435.025
VELOX 1 07 Jul 12:24:23 12:28:31 38° 97° (E) 12:32:38 145.980
CINEMA 3 07 Jul 12:25:36 12:27:51 14° 297° (WNW) 12:29:59 145.822/145.860
COMPASS 1 07 Jul 12:28:03 12:29:14 11° 299° (WNW) 12:30:13 437.405
ANTELSAT 07 Jul 12:29:05 12:32:24 21° 268° (W) 12:35:37 437.575/2403.000
HUMSAT D 07 Jul 12:29:34 12:33:45 79° 285° (WNW) 12:37:58 437.325/437.525
UKube-1 07 Jul 12:36:57 12:41:18 86° 102° (ESE) 12:45:37 .
ZACube-1 07 Jul 12:38:19 12:42:03 30° 291° (WNW) 12:45:46 437.345
Oscar 11 07 Jul 12:40:18 12:43:27 19° 295° (WNW) 12:46:29 145.826/435.025
TIGRISAT 07 Jul 12:40:30 12:43:22 17° 269° (W) 12:46:05 435.000
ISS 07 Jul 12:41:07 12:44:07 33° 16° (NNE) 12:47:06 145.825
POPSAT HIP 1 07 Jul 12:47:34 12:51:20 30° 264° (W) 12:55:04 437.405
QB50P2 07 Jul 12:47:46 12:51:30 29° 265° (W) 12:55:12 145.880/145.840
YUBILEINY 07 Jul 12:50:18 12:52:54 12° 47° (NE) 12:56:06 435.215
CUBEBUG 2 07 Jul 12:51:34 12:54:06 15° 296° (WNW) 12:56:31 437.445
RS-15 07 Jul 12:52:28 13:03:48 56° 245° (WSW) 13:15:25 29.354- 29.394
HO-68 07 Jul 12:54:49 12:59:08 17° 309° (NW) 13:03:10 435.675
Cosmos 2499 07 Jul 12:57:23 13:03:52 37° 290° (WNW) 13:10:28 435.465 / 435.565
TISAT 1 07 Jul 13:03:54 13:04:47 11° 87° (E) 13:05:54 437.305
50 SAT 07 Jul 13:09:14 13:13:04 53° 287° (WNW) 13:16:53 437.505
AISAT 07 Jul 13:12:29 13:16:52 65° 287° (WNW) 13:21:13 437.250
FUNcube-1 07 Jul 13:14:03 13:16:29 15° 296° (WNW) 13:18:46 145.935
CUBEBUG 1 07 Jul 13:19:41 13:24:05 85° 103° (ESE) 13:28:24 437.445
Oscar 19 07 Jul 13:28:36 13:33:06 33° 67° (ENE) 13:37:40 437.125/150
QB50P1 07 Jul 13:28:40 13:30:28 12° 272° (W) 13:32:03 145.935-145.965
ITAMSAT 1 07 Jul 13:49:13 13:52:20 17° 59° (ENE) 13:55:39 435.822/435.867
BUGSAT 1 07 Jul 13:49:46 13:51:01 11° 273° (W) 13:52:01 437.445
AO-7 07 Jul 13:51:44 13:54:00 12° 37° (NE) 13:56:41 29.400- 29.500
PHONESAT 2.4 07 Jul 13:56:06 13:57:56 14° 206° (SSW) 13:59:43 2401.200-2431.200
ESTCUBE 1 07 Jul 13:56:57 14:01:09 36° 291° (WNW) 14:05:16 437.505/2401.250
DX 1 07 Jul 13:58:43 14:01:15 15° 298° (WNW) 14:03:36 434.975-435.025
VELOX 1 07 Jul 14:01:22 14:04:53 23° 295° (WNW) 14:08:18 145.980
Gurwin Techsat 1B 07 Jul 14:01:47 14:05:42 22° 62° (ENE) 14:09:45 435.225
SPROUT 07 Jul 14:08:43 14:13:02 86° 103° (ESE) 14:17:18 437.525
UKube-1 07 Jul 14:15:20 14:16:50 11° 300° (WNW) 14:18:07 .
ISS 07 Jul 14:17:27 14:20:39 58° 215° (SW) 14:23:50 145.825
JAS-2 07 Jul 14:29:10 14:30:39 11° 53° (NE) 14:32:26 435.910
TISAT 1 07 Jul 14:36:57 14:41:08 72° 286° (WNW) 14:45:17 437.305
YUBILEINY 07 Jul 14:43:55 14:52:27 54° 74° (ENE) 15:01:02 435.215
BEESAT 3 07 Jul 14:49:11 14:52:07 19° 38° (NE) 14:55:04 437.485
CUBEBUG 1 07 Jul 14:58:16 14:59:50 12° 300° (WNW) 15:01:12 437.445
BEESAT 07 Jul 15:00:36 15:04:57 33° 96° (E) 15:09:17 436.000
BEESAT 2 07 Jul 15:06:09 15:09:18 21° 40° (NE) 15:12:29 435.950
Oscar 19 07 Jul 15:07:46 15:12:26 34° 264° (W) 15:17:05 437.125/150
Cosmos 2491 07 Jul 15:09:30 15:17:07 36° 85° (E) 15:24:55 435.465 / 435.565
RS-15 07 Jul 15:10:19 15:14:02 11° 265° (W) 15:16:31 29.354- 29.394
AIST 2 07 Jul 15:10:55 15:11:37 10° 27° (NNE) 15:12:27 435.215
SWISSCUBE 07 Jul 15:16:32 15:21:14 52° 100° (E) 15:25:55 437.505
HORYU 2 07 Jul 15:23:03 15:25:36 16° 62° (ENE) 15:28:18 437.375
ITUPSAT 1 07 Jul 15:23:31 15:28:15 54° 100° (E) 15:32:59 437.325
ITAMSAT 1 07 Jul 15:26:02 15:31:16 78° 256° (WSW) 15:36:33 435.822/435.867
AO-7 07 Jul 15:37:07 15:44:43 42° 60° (ENE) 15:52:27 29.400- 29.500
Gurwin Techsat 1B 07 Jul 15:40:05 15:45:18 58° 259° (W) 15:50:35 435.225
Cosmos 2504 07 Jul 15:42:01 15:45:35 14° 56° (NE) 15:49:43 435.465 / 435.565
SPROUT 07 Jul 15:47:14 15:48:31 11° 300° (WNW) 15:49:36 437.525
AIST 1 07 Jul 15:47:53 15:51:44 31° 91° (E) 15:55:39
STARS 07 Jul 16:03:59 16:06:36 16° 90° (E) 16:09:23 437.465
JAS-2 07 Jul 16:09:35 16:14:44 72° 74° (ENE) 16:20:19 435.910
O/OREOS (USA 219) 07 Jul 16:09:51 16:12:31 16° 48° (NE) 16:15:19 437.305
PCSat 07 Jul 16:11:48 16:17:09 66° 118° (ESE) 16:22:33 145.827
SO-50 07 Jul 16:17:22 16:20:49 21° 112° (ESE) 16:24:30 436.795
BEESAT 3 07 Jul 16:26:26 16:30:28 63° 238° (WSW) 16:34:26 437.485
BEESAT 07 Jul 16:38:31 16:42:44 30° 293° (WNW) 16:46:51 436.000
YUBILEINY 07 Jul 16:41:13 16:49:03 37° 274° (W) 16:56:44 435.215
BEESAT 2 07 Jul 16:43:40 16:47:41 53° 239° (WSW) 16:51:36 435.950
AIST 2 07 Jul 16:47:13 16:51:18 46° 49° (NE) 16:55:19 435.215
SWISSCUBE 07 Jul 16:55:10 16:58:45 21° 297° (WNW) 17:02:14 437.505
KKS-1 07 Jul 16:55:45 17:00:13 88° 104° (ESE) 17:04:38 437.445
HORYU 2 07 Jul 16:57:26 17:01:48 62° 258° (WSW) 17:06:12 437.375
ITUPSAT 1 07 Jul 17:02:17 17:05:47 20° 297° (WNW) 17:09:11 437.325
Cosmos 2491 07 Jul 17:05:04 17:13:42 56° 286° (WNW) 17:22:20 435.465 / 435.565
AIST 1 07 Jul 17:25:43 17:29:26 25° 289° (WNW) 17:33:06
Cubesat XI-IV 07 Jul 17:26:05 17:28:23 13° 56° (ENE) 17:30:55 437.490
AO-7 07 Jul 17:29:20 17:37:25 51° 259° (W) 17:45:32 29.400- 29.500
Cosmos 2504 07 Jul 17:31:53 17:39:24 69° 79° (ENE) 17:47:30 435.465 / 435.565
MOZHAYETS 4 07 Jul 17:38:34 17:42:37 29° 94° (E) 17:46:42
STARS 07 Jul 17:39:09 17:43:25 53° 288° (WNW) 17:47:41 437.465
O/OREOS (USA 219) 07 Jul 17:48:00 17:52:32 74° 248° (WSW) 17:57:04 437.305
SO-50 07 Jul 17:56:17 18:01:00 58° 310° (NW) 18:05:52 436.795
PCSat 07 Jul 17:56:36 18:01:04 25° 319° (NW) 18:05:29 145.827
JAS-2 07 Jul 17:57:46 18:00:47 15° 275° (W) 18:03:38 435.910
AIST 2 07 Jul 18:26:24 18:29:36 21° 247° (WSW) 18:32:40 435.215
CUTE-I 07 Jul 18:27:30 18:32:28 40° 68° (ENE) 18:37:30 437.470
KKS-1 07 Jul 18:34:40 18:36:14 11° 300° (WNW) 18:37:35 437.445
Cubesat XI-IV 07 Jul 19:02:21 19:07:43 79° 74° (ENE) 19:13:08 437.490
Cosmos 2491 07 Jul 19:09:33 19:13:13 12° 312° (NW) 19:16:19 435.465 / 435.565
MOZHAYETS 4 07 Jul 19:15:42 19:19:52 32° 292° (WNW) 19:23:57
DANDE 07 Jul 19:21:13 19:23:34 25° 72° (ENE) 19:25:49 436.750
GONETS M04 07 Jul 19:21:14 19:27:48 24° 60° (ENE) 19:34:37
Cosmos 2504 07 Jul 19:25:04 19:31:07 26° 276° (W) 19:37:13 435.465 / 435.565
GOMX 1 07 Jul 19:31:33 19:33:06 12° 61° (ENE) 19:34:52 467.674
CUSAT 1 07 Jul 19:33:59 19:36:36 82° 79° (ENE) 19:39:16 437.405
SO-50 07 Jul 19:39:51 19:42:39 15° 332° (NNW) 19:45:22 436.795
HO-68 07 Jul 19:50:05 19:55:25 24° 56° (NE) 20:00:56 435.675
CUBESAT XI-V 07 Jul 19:51:57 19:56:36 59° 100° (E) 20:01:12 437.345
DOVE 4 07 Jul 19:57:37 19:59:23 12° 62° (ENE) 20:01:21 437.250
CUTE-I 07 Jul 20:07:57 20:12:40 30° 266° (W) 20:17:20 437.470
PRISM 07 Jul 20:08:10 20:11:36 24° 94° (E) 20:15:04 437.425
BRITE-PL 07 Jul 20:11:02 20:16:02 43° 72° (ENE) 20:20:45 437.365/2234.400
CUTE 1.7 + AOD 2 07 Jul 20:30:36 20:33:37 20° 66° (ENE) 20:36:47 437.475
CANX-2 07 Jul 20:34:11 20:37:32 24° 67° (ENE) 20:40:58 2200.000
STRAND 1 07 Jul 20:36:59 20:42:03 54° 100° (E) 20:47:04 437.568
Cubesat XI-IV 07 Jul 20:45:28 20:48:33 15° 273° (W) 20:51:23 437.490
Cosmos 2499 07 Jul 20:51:53 20:56:59 19° 59° (ENE) 21:02:42 435.465 / 435.565
GOMX 1 07 Jul 21:05:40 21:10:42 85° 75° (ENE) 21:15:25 467.674
SEEDS 07 Jul 21:11:51 21:15:47 42° 71° (ENE) 21:19:47 437.485
AAUSAT CUBESAT 2 07 Jul 21:13:52 21:17:30 31° 69° (ENE) 21:21:13 437.432
GONETS M04 07 Jul 21:17:10 21:25:54 83° 263° (W) 21:34:36
UWE-3 07 Jul 21:22:38 21:24:53 15° 64° (ENE) 21:27:16 435.000/436.395/437.385
CUBESAT XI-V 07 Jul 21:30:28 21:33:37 18° 297° (WNW) 21:36:37 437.345
DOVE 4 07 Jul 21:31:55 21:36:41 83° 256° (WSW) 21:41:11 437.250
HO-68 07 Jul 21:35:20 21:42:30 79° 255° (WSW) 21:49:42 435.675
COMPASS 1 07 Jul 21:42:41 21:46:50 74° 74° (ENE) 21:51:01 437.405
PRISM 07 Jul 21:43:19 21:47:06 32° 291° (WNW) 21:50:46 437.425
BRITE-PL 07 Jul 21:50:14 21:54:42 26° 267° (W) 21:58:50 437.365/2234.400
CINEMA 3 07 Jul 21:50:27 21:54:50 72° 75° (ENE) 21:59:05 145.822/145.860
AUBIESAT-1 07 Jul 21:58:50 22:02:10 22° 99° (E) 22:05:44 437.475
Oscar 11 07 Jul 21:59:55 22:04:00 45° 72° (ENE) 22:08:09 145.826/435.025
ZACube-1 07 Jul 22:00:15 22:03:44 27° 68° (ENE) 22:07:17 437.345
UKube-1 07 Jul 22:00:56 22:02:10 11° 60° (ENE) 22:03:37 .
